DW5164 Weather Reports


Display with metric or nautical units.
time (UTC)temp
F
wind
direction
speed
MPH
gust
MPH
rain 1hr
in
rain 24hr
in
rain mn
in
humidity
%
barometer
mb
20260831220416 76 191 2.0 3.0 0.00 0.00 0.00 77 1012.4
20260831215917 76 221 1.0 3.0 0.00 0.00 0.00 77 1012.3
20260831215417 76 207 2.0 3.0 0.00 0.00 0.00 77 1012.3
20260831214916 76 216 1.0 3.0 0.00 0.00 0.00 76 1012.2
20260831214417 76 223 2.0 3.0 0.00 0.00 0.00 76 1012.2
20260831213916 77 247 1.0 3.0 0.00 0.00 0.00 76 1012.2
20260831213416 77 232 2.0 3.0 0.00 0.00 0.00 75 1012.2
20260831212916 76 232 2.0 3.0 0.00 0.00 0.00 76 1012.2
20260831211916 76 233 2.0 3.0 0.00 0.00 0.00 77 1012.1
20260831211416 77 233 2.0 2.0 0.00 0.00 0.00 76 1012.1
20260831210916 76 233 1.0 2.0 0.00 0.00 0.00 77 1012.2
20260831210416 76 227 1.0 2.0 0.00 0.00 0.00 77 1012.0
20260831205916 77 225 2.0 2.0 0.00 0.00 0.00 76 1012.0
20260831205416 77 224 1.0 3.0 0.00 0.00 0.00 75 1011.9
20260831204416 77 230 2.0 3.0 0.00 0.00 0.00 74 1011.9
20260831203916 77 230 0.0 2.0 0.00 0.00 0.00 75 1011.8
20260831202916 77 230 1.0 3.0 0.00 0.00 0.00 76 1011.7
20260831202416 77 230 2.0 3.0 0.00 0.00 0.00 76 1011.7
20260831201916 77 230 2.0 3.0 0.00 0.00 0.00 75 1011.7
20260831200916 76 224 3.0 3.0 0.00 0.00 0.00 78 1011.6
20260831200416 77 148 1.0 3.0 0.00 0.00 0.00 78 1011.6
20260831195916 76 147 0.0 2.0 0.00 0.00 0.00 78 1011.6
20260831195416 77 147 3.0 3.0 0.00 0.00 0.00 75 1011.5
20260831194417 79 310 0.0 0.0 0.00 0.00 0.00 74 1011.4
20260831193916 79 310 0.0 0.0 0.00 0.00 0.00 73 1011.4
20260831193416 78 310 0.0 0.0 0.00 0.00 0.00 73 1011.4
20260831192916 79 310 0.0 0.0 0.00 0.00 0.00 74 1011.4
20260831191415 79 310 0.0 0.0 0.00 0.00 0.00 73 1011.4
20260831190916 79 310 0.0 0.0 0.00 0.00 0.00 72 1011.4
20260831185916 80 310 0.0 0.0 0.00 0.00 0.00 71 1011.3
20260831185416 81 310 0.0 0.0 0.00 0.00 0.00 70 1011.2
20260831184915 81 310 0.0 0.0 0.00 0.00 0.00 70 1011.2
20260831184416 80 310 0.0 0.0 0.00 0.00 0.00 70 1011.1
20260831183916 80 310 0.0 0.0 0.00 0.00 0.00 70 1011.0
20260831183416 81 310 0.0 0.0 0.00 0.00 0.00 68 1011.0
20260831182916 81 310 0.0 0.0 0.00 0.00 0.00 67 1011.0
20260831182416 82 310 0.0 0.0 0.00 0.00 0.00 66 1010.9
20260831181916 83 310 0.0 1.0 0.00 0.00 0.00 64 1010.9
20260831181415 84 310 0.0 1.0 0.00 0.00 0.00 61 1010.9
20260831180917 84 310 1.0 2.0 0.00 0.00 0.00 60 1010.9
20260831180416 85 310 1.0 3.0 0.00 0.00 0.00 58 1010.8
20260831175916 85 310 1.0 3.0 0.00 0.00 0.00 58 1010.8
20260831175415 85 308 2.0 3.0 0.00 0.00 0.00 58 1010.8
20260831174916 86 296 2.0 3.0 0.00 0.00 0.00 57 1010.8
20260831174416 86 286 2.0 3.0 0.00 0.00 0.00 57 1010.7
20260831173916 87 288 1.0 2.0 0.00 0.00 0.00 57 1010.7
20260831173416 87 288 1.0 3.0 0.00 0.00 0.00 56 1010.7
20260831172916 88 288 1.0 3.0 0.00 0.00 0.00 54 1010.7
20260831172415 88 293 2.0 5.0 0.00 0.00 0.00 53 1010.7
20260831171916 88 305 2.0 5.0 0.00 0.00 0.00 53 1010.7
20260831170917 89 303 3.0 3.0 0.00 0.00 0.00 51 1010.8
20260831170416 89 293 3.0 5.0 0.00 0.00 0.00 51 1010.8
20260831165415 90 305 2.0 3.0 0.00 0.00 0.00 50 1010.9
20260831164916 90 261 1.0 3.0 0.00 0.00 0.00 49 1010.9
20260831164416 90 296 2.0 5.0 0.00 0.00 0.00 48 1010.9
20260831163915 90 296 4.0 6.0 0.00 0.00 0.00 48 1010.9
20260831162416 91 290 3.0 8.0 0.00 0.00 0.00 47 1011.0
20260831161915 91 290 3.0 7.0 0.00 0.00 0.00 48 1011.0
20260831161415 91 303 5.0 7.0 0.00 0.00 0.00 48 1011.1
20260831160915 91 297 3.0 7.0 0.00 0.00 0.00 48 1011.1
20260831160416 90 198 1.0 3.0 0.00 0.00 0.00 48 1011.1
20260831152915 92 292 5.0 7.0 0.00 0.00 0.00 48 1011.3
20260831152415 91 297 5.0 9.0 0.00 0.00 0.00 48 1011.3
20260831151915 91 251 3.0 3.0 0.00 0.00 0.00 49 1011.4
20260831151416 91 70 1.0 5.0 0.00 0.00 0.00 48 1011.4
20260831150915 92 291 5.0 6.0 0.00 0.00 0.00 48 1011.4
20260831150415 92 262 2.0 7.0 0.00 0.00 0.00 49 1011.5
20260831145416 91 347 1.0 3.0 0.00 0.00 0.00 48 1011.5
20260831144916 91 240 0.0 3.0 0.00 0.00 0.00 47 1011.6
20260831144415 91 293 2.0 6.0 0.00 0.00 0.00 50 1011.6
20260831143415 92 245 5.0 9.0 0.00 0.00 0.00 48 1011.6
20260831142915 92 285 5.0 7.0 0.00 0.00 0.00 48 1011.6
20260831142415 91 311 2.0 5.0 0.00 0.00 0.00 49 1011.6
20260831141415 91 213 5.0 8.0 0.00 0.00 0.00 48 1011.6
20260831140915 91 288 1.0 7.0 0.00 0.00 0.00 48 1011.7
20260831140415 91 267 5.0 7.0 0.00 0.00 0.00 50 1011.7
20260831134915 91 303 3.0 9.0 0.00 0.00 0.00 48 1011.8
20260831133916 91 286 5.0 12.0 0.00 0.00 0.00 51 1011.8
20260831133415 91 250 5.0 8.0 0.00 0.00 0.00 51 1011.8
20260831132915 90 241 3.0 6.0 0.00 0.00 0.00 50 1011.9
20260831132415 91 223 2.0 5.0 0.00 0.00 0.00 49 1012.0
20260831131915 90 220 5.0 7.0 0.00 0.00 0.00 50 1012.0
20260831131415 91 256 3.0 7.0 0.00 0.00 0.00 51 1012.1
20260831130916 91 262 4.0 7.0 0.00 0.00 0.00 50 1012.2
20260831125915 91 243 4.0 7.0 0.00 0.00 0.00 51 1012.2
20260831125415 91 234 2.0 6.0 0.00 0.00 0.00 52 1012.2
20260831124415 90 260 5.0 9.0 0.00 0.00 0.00 51 1012.4
20260831123916 91 283 3.0 6.0 0.00 0.00 0.00 51 1012.5
20260831123414 91 309 3.0 5.0 0.00 0.00 0.00 52 1012.5
20260831122914 91 31 3.0 5.0 0.00 0.00 0.00 52 1012.5
20260831122415 90 308 4.0 7.0 0.00 0.00 0.00 52 1012.5
20260831121915 89 5 2.0 3.0 0.00 0.00 0.00 52 1012.6
20260831121414 89 213 2.0 5.0 0.00 0.00 0.00 52 1012.6
20260831120915 89 265 4.0 7.0 0.00 0.00 0.00 53 1012.6
20260831120414 90 287 6.0 8.0 0.00 0.00 0.00 53 1012.7
20260831115915 90 315 3.0 7.0 0.00 0.00 0.00 53 1012.7
20260831115416 90 353 3.0 6.0 0.00 0.00 0.00 53 1012.7
20260831114916 90 337 4.0 9.0 0.00 0.00 0.00 52 1012.7
20260831114415 90 296 5.0 8.0 0.00 0.00 0.00 52 1012.8
20260831113914 90 312 2.0 7.0 0.00 0.00 0.00 53 1012.8
20260831113415 88 245 3.0 5.0 0.00 0.00 0.00 54 1012.9
20260831112915 89 261 5.0 10.0 0.00 0.00 0.00 54 1013.0
20260831112414 89 267 5.0 10.0 0.00 0.00 0.00 55 1012.9
20260831111415 88 327 3.0 12.0 0.00 0.00 0.00 54 1013.0
20260831110916 88 300 3.0 7.0 0.00 0.00 0.00 55 1013.0
20260831110414 87 152 3.0 5.0 0.00 0.00 0.00 56 1013.0
20260831105915 87 240 2.0 6.0 0.00 0.00 0.00 56 1013.0
20260831105414 88 246 4.0 9.0 0.00 0.00 0.00 55 1013.0
20260831104914 87 242 2.0 6.0 0.00 0.00 0.00 58 1013.1
20260831104414 87 202 4.0 6.0 0.00 0.00 0.00 57 1013.1
20260831103914 87 214 3.0 5.0 0.00 0.00 0.00 57 1013.1
20260831103414 87 267 1.0 3.0 0.00 0.00 0.00 57 1013.2
20260831102915 87 341 2.0 5.0 0.00 0.00 0.00 60 1013.2
20260831102414 87 253 4.0 6.0 0.00 0.00 0.00 59 1013.2
20260831101414 86 257 2.0 5.0 0.00 0.00 0.00 60 1013.2
20260831100414 86 286 1.0 3.0 0.00 0.00 0.00 60 1013.3
20260831095914 85 290 5.0 8.0 0.00 0.00 0.00 63 1013.4
20260831095414 85 242 2.0 5.0 0.00 0.00 0.00 63 1013.4
20260831094914 85 243 3.0 6.0 0.00 0.00 0.00 65 1013.5
20260831093915 84 255 3.0 6.0 0.00 0.00 0.00 66 1013.5
20260831093414 84 276 5.0 7.0 0.00 0.00 0.00 67 1013.6
20260831092914 84 283 4.0 7.0 0.00 0.00 0.00 68 1013.7
20260831092415 84 325 3.0 6.0 0.00 0.00 0.00 67 1013.7
20260831091913 83 260 3.0 6.0 0.00 0.00 0.00 67 1013.7
20260831091414 84 263 3.0 6.0 0.00 0.00 0.00 67 1013.7
20260831090914 83 211 3.0 5.0 0.00 0.00 0.00 66 1013.7
20260831090414 83 305 2.0 6.0 0.00 0.00 0.00 67 1013.8
20260831085414 83 302 3.0 8.0 0.00 0.00 0.00 67 1013.8
20260831084914 83 296 3.0 6.0 0.00 0.00 0.00 68 1013.8
20260831083914 82 307 2.0 6.0 0.00 0.00 0.00 70 1013.8
20260831083413 82 297 2.0 6.0 0.00 0.00 0.00 71 1013.8
20260831082914 81 313 3.0 6.0 0.00 0.00 0.00 71 1013.7
20260831082414 81 295 3.0 6.0 0.00 0.00 0.00 72 1013.7
20260831080914 80 252 1.0 5.0 0.00 0.00 0.00 75 1013.5
20260831075914 79 309 2.0 5.0 0.00 0.00 0.00 74 1013.5
20260831075414 79 323 3.0 7.0 0.00 0.00 0.00 75 1013.5
20260831074914 78 296 3.0 5.0 0.00 0.00 0.00 78 1013.5
20260831073914 77 254 2.0 3.0 0.00 0.00 0.00 78 1013.4
20260831073414 77 256 2.0 3.0 0.00 0.00 0.00 78 1013.4
20260831072914 77 172 1.0 3.0 0.00 0.00 0.00 78 1013.3
20260831072415 76 213 0.0 0.0 0.00 0.00 0.00 79 1013.3
20260831071914 76 225 1.0 2.0 0.00 0.00 0.00 79 1013.2
20260831071413 75 222 1.0 3.0 0.00 0.00 0.00 80 1013.3
20260831070414 75 228 1.0 3.0 0.00 0.00 0.00 82 1013.2
20260831065913 74 239 3.0 3.0 0.00 0.00 0.00 82 1013.3
20260831065415 74 248 2.0 3.0 0.00 0.00 0.00 83 1013.3
20260831064914 74 275 2.0 3.0 0.00 0.00 0.00 83 1013.3
20260831064414 73 274 0.0 0.0 0.00 0.00 0.00 84 1013.2
20260831063913 73 281 0.0 2.0 0.00 0.00 0.00 84 1013.2
20260831062414 72 261 2.0 3.0 0.00 0.00 0.00 87 1013.3
20260831061413 71 250 3.0 3.0 0.00 0.00 0.00 87 1013.3
20260831060913 71 263 2.0 3.0 0.00 0.00 0.00 88 1013.3
20260831055913 69 236 1.0 3.0 0.00 0.00 0.00 90 1013.2
20260831054914 68 236 2.0 3.0 0.00 0.00 0.00 91 1013.2
20260831053914 68 286 0.0 0.0 0.00 0.00 0.00 91 1013.1
20260831052914 68 302 0.0 0.0 0.00 0.00 0.00 92 1013.0
20260831052413 67 306 0.0 0.0 0.00 0.00 0.00 92 1013.0
20260831051913 67 306 0.0 0.0 0.00 0.00 0.00 92 1013.0
20260831051414 67 305 0.0 0.0 0.00 0.00 0.00 92 1013.0
20260831050914 67 290 0.0 0.0 0.00 0.00 0.00 92 1013.0
20260831050413 67 190 0.0 0.0 0.00 0.00 0.00 92 1012.9
20260831045913 67 190 0.0 0.0 0.00 0.00 0.00 92 1012.8
20260831045413 67 190 0.0 0.0 0.00 0.00 0.00 92 1012.8
20260831044913 67 190 0.0 0.0 0.00 0.00 0.00 93 1012.7
20260831044413 67 190 0.0 0.0 0.00 0.00 0.00 93 1012.6
20260831043914 67 190 0.0 0.0 0.00 0.00 0.00 93 1012.5
20260831043413 67 190 0.0 0.0 0.00 0.00 0.00 93 1012.6
20260831042913 67 190 0.0 0.0 0.00 0.00 0.00 93 1012.6
20260831042413 67 190 0.0 0.0 0.00 0.00 0.00 93 1012.5
20260831041913 67 155 0.0 0.0 0.00 0.00 0.00 93 1012.5
20260831041413 67 153 0.0 0.0 0.00 0.00 0.00 93 1012.6
20260831040413 67 89 0.0 0.0 0.00 0.00 0.00 93 1012.7
20260831035913 68 89 0.0 0.0 0.00 0.00 0.00 93 1012.6
20260831035413 67 89 0.0 0.0 0.00 0.00 0.00 93 1012.6
20260831034913 67 89 0.0 0.0 0.00 0.00 0.00 94 1012.6
20260831034414 67 89 0.0 0.0 0.00 0.00 0.00 93 1012.6
20260831033913 67 89 0.0 0.0 0.00 0.00 0.00 93 1012.5
20260831033413 67 89 0.0 0.0 0.00 0.00 0.00 93 1012.6
20260831032914 68 89 0.0 0.0 0.00 0.00 0.00 93 1012.7
20260831032414 67 89 0.0 0.0 0.00 0.00 0.00 93 1012.8
20260831031413 67 89 0.0 0.0 0.00 0.00 0.00 93 1012.8
20260831030913 67 89 0.0 0.0 0.00 0.00 0.00 93 1012.7
20260831030413 67 89 0.0 0.0 0.00 0.00 0.00 93 1012.8
20260831025413 68 89 0.0 0.0 0.00 0.00 0.00 92 1012.9
20260831024913 68 89 0.0 0.0 0.00 0.00 0.00 92 1012.8
20260831024414 68 89 0.0 0.0 0.00 0.00 0.00 92 1012.9
20260831023913 68 89 0.0 0.0 0.00 0.00 0.00 91 1012.9
20260831023413 68 89 0.0 0.0 0.00 0.00 0.00 91 1012.9
20260831022913 68 89 0.0 2.0 0.00 0.00 0.00 90 1012.9
20260831022413 68 89 1.0 5.0 0.00 0.00 0.00 90 1012.9
20260831021912 69 103 2.0 3.0 0.00 0.00 0.00 89 1012.9
20260831021413 69 49 1.0 2.0 0.00 0.00 0.00 89 1012.9
20260831020913 69 49 0.0 2.0 0.00 0.00 0.00 89 1012.9
20260831020413 69 49 0.0 2.0 0.00 0.00 0.00 89 1013.0
20260831015913 68 49 1.0 3.0 0.00 0.00 0.00 90 1012.9
20260831014912 68 49 2.0 3.0 0.00 0.00 0.00 89 1012.9
20260831014413 69 49 1.0 2.0 0.00 0.00 0.00 89 1012.9
20260831013913 69 49 2.0 3.0 0.00 0.00 0.00 88 1013.0
20260831013414 69 49 1.0 3.0 0.00 0.00 0.00 88 1012.9
20260831012913 70 49 1.0 2.0 0.00 0.00 0.00 87 1013.0
20260831012412 70 49 1.0 3.0 0.00 0.00 0.00 86 1013.0
20260831011912 70 49 0.0 0.0 0.00 0.00 0.00 87 1013.0
20260831010912 70 49 0.0 1.0 0.00 0.00 0.00 86 1013.0
20260831010413 70 49 1.0 2.0 0.00 0.00 0.00 86 1013.0
20260831005912 70 49 1.0 2.0 0.00 0.00 0.00 85 1013.0
20260831005413 70 49 1.0 2.0 0.00 0.00 0.00 85 1013.0
20260831004913 70 49 1.0 2.0 0.00 0.00 0.00 86 1012.9
20260831004413 70 49 2.0 3.0 0.00 0.00 0.00 86 1013.0
20260831003913 70 49 1.0 3.0 0.00 0.00 0.00 86 1013.0
20260831003413 70 49 1.0 3.0 0.00 0.00 0.00 86 1013.1
20260831002913 70 49 2.0 3.0 0.00 0.00 0.00 85 1013.0
20260831002413 70 49 1.0 3.0 0.00 0.00 0.00 85 1013.1
20260831001913 71 49 1.0 3.0 0.00 0.00 0.00 84 1013.1
20260831001413 71 49 2.0 3.0 0.00 0.00 0.00 84 1013.1
20260831000913 71 49 1.0 3.0 0.00 0.00 0.00 84 1013.2
20260831000413 71 49 2.0 3.0 0.00 0.00 0.00 83 1013.2
20260830235913 71 49 2.0 3.0 0.00 0.00 0.00 83 1013.2
20260830235413 71 49 1.0 2.0 0.00 0.00 0.00 83 1013.2
20260830234912 71 49 0.0 2.0 0.00 0.00 0.00 82 1013.3
20260830233912 71 49 1.0 2.0 0.00 0.00 0.00 83 1013.2
20260830233413 71 49 0.0 2.0 0.00 0.00 0.00 82 1013.3
20260830232912 72 49 2.0 3.0 0.00 0.00 0.00 82 1013.3
20260830232413 71 49 1.0 3.0 0.00 0.00 0.00 82 1013.3
20260830231913 71 49 0.0 2.0 0.00 0.00 0.00 83 1013.3
20260830231413 71 49 0.0 1.0 0.00 0.00 0.00 84 1013.4
20260830230912 71 49 1.0 2.0 0.00 0.00 0.00 84 1013.3
20260830230413 71 49 0.0 0.0 0.00 0.00 0.00 83 1013.3
20260830225912 72 49 0.0 1.0 0.00 0.00 0.00 82 1013.4
20260830225413 72 49 0.0 1.0 0.00 0.00 0.00 82 1013.3
20260830224913 72 49 0.0 0.0 0.00 0.00 0.00 82 1013.3
20260830224413 72 49 0.0 1.0 0.00 0.00 0.00 81 1013.3
20260830223912 72 49 0.0 0.0 0.00 0.00 0.00 81 1013.3
20260830223412 72 49 0.0 0.0 0.00 0.00 0.00 82 1013.2
20260830222412 72 49 1.0 2.0 0.00 0.00 0.00 81 1013.2
20260830221912 73 49 1.0 1.0 0.00 0.00 0.00 81 1013.2
20260830221413 72 49 0.0 0.0 0.00 0.00 0.00 83 1013.2
20260830220912 72 49 0.0 1.0 0.00 0.00 0.00 83 1013.2